[[{"header":{"parameterUnit":"m.s-1","parameterCategory":1,"la1":30.2991,"la2":30.254,"lo1":-89.0895,"lo2":-89.0444,"dy":0.0017,"dx":0.0017,"nx":28,"ny":28,"refTime":"2025-07-27T03:00:00:Z","depth":0,"parameterNumber":2,"parameterNumberName":"U-component_of_WINDS"},"data":[0,0,0,0,0,0,0,0,0,0,0,0,0,0,0,0,0,0,0,0,0,0,0,0,0,0,0,0,0,0,0,0,0,0,0,0,0,0,0,0,0,0,0,0,0,0,0,0,0,0,0,0,0,0,0,0,0,0,-0.8739,-0.8738,0,-0.8644,-0.8643,-0.8642,-0.8578,-0.8578,-0.8577,-0.8577,-0.8478,-0.8476,-0.8474,0,0,0,0,0,0,0,0,0,0,0,0,0,-0.8865,-0.8863,-0.8739,-0.8738,-0.8737,-0.8644,-0.8643,-0.8642,-0.8578,-0.8578,-0.8577,-0.8576,-0.8479,-0.8476,-0.8473,0,0,0,0,0,0,0,0,0,0,0,0,0,-0.8794,-0.8862,-0.874,-0.8694,-0.8689,-0.8645,-0.8643,-0.8641,-0.8578,-0.8577,-0.8577,-0.8576,-0.8479,-0.8476,-0.8473,-0.8466,0,0,-0.8463,-0.8461,0,0,0,0,0,0,0,0,-0.8798,-0.879,-0.8702,-0.8697,-0.8691,-0.8622,-0.8651,-0.8583,-0.8578,-0.862,-0.8577,-0.8576,-0.8526,-0.8519,-0.8503,-0.8461,-0.8457,-0.8463,-0.8461,-0.8459,-0.8458,0,0,0,0,0,0,0,-0.8803,-0.8794,-0.8702,-0.8701,-0.8694,-0.8678,-0.8667,-0.8638,-0.8578,-0.8617,-0.8612,-0.8601,-0.8523,-0.8506,-0.85,-0.8456,-0.8463,-0.846,-0.8458,-0.8456,-0.8405,-0.8405,0,0,0,0,0,0,-0.8816,-0.8798,-0.8705,-0.8699,-0.8744,-0.8677,-0.8664,-0.8645,-0.8578,-0.8568,-0.8602,-0.8599,-0.8512,-0.8504,-0.8496,-0.8484,-0.8459,-0.8456,-0.8454,-0.8404,-0.8405,-0.8406,0,0,0,0,0,0,-0.8819,-0.8808,-0.8708,-0.8747,-0.8733,-0.8675,-0.8654,-0.8644,-0.8626,-0.8567,-0.8556,-0.8595,-0.8511,-0.8501,-0.8474,-0.848,-0.8455,-0.8451,-0.8403,-0.8404,-0.8405,-0.846,0,0,0,0,0,0,-0.8822,-0.8809,-0.8806,-0.8747,-0.8731,-0.8688,-0.8654,-0.8642,-0.8621,-0.8616,-0.8558,-0.8548,-0.851,-0.848,-0.8471,-0.8475,-0.8449,-0.8403,-0.8404,-0.8405,-0.8457,-0.8462,-0.8467,0,0,0,0,0,-0.8827,-0.8825,-0.8806,-0.8795,-0.8726,-0.8689,-0.868,-0.8636,-0.8622,-0.8618,-0.858,-0.855,-0.8481,-0.8477,-0.8467,-0.847,-0.8402,-0.8404,-0.8405,-0.8455,-0.8461,-0.8467,0,0,0,0,0,0,-0.8884,-0.8816,-0.8795,-0.8773,-0.8738,-0.8678,-0.8672,-0.8644,-0.8611,-0.8608,-0.8555,-0.8542,-0.8521,-0.8493,-0.849,-0.846,-0.8438,-0.8437,-0.848,-0.8485,-0.849,-0.8497,-0.8446,0,0,0,0,0,-0.8895,-0.887,-0.8812,-0.8798,-0.8782,-0.873,-0.8712,-0.8682,-0.8643,-0.8627,-0.8587,-0.855,-0.852,-0.8501,-0.847,-0.8453,-0.844,-0.845,-0.8455,-0.8459,-0.8459,-0.8449,-0.8453,-0.841,-0.841,-0.841,0,0,-0.8915,-0.8875,-0.8863,-0.8809,-0.8778,-0.8754,-0.8718,-0.8693,-0.8675,-0.8623,-0.8596,-0.8566,-0.852,-0.8499,-0.8488,-0.8475,-0.8469,-0.8461,-0.8465,-0.8463,-0.8451,-0.8455,-0.8459,-0.8411,-0.8411,-0.8411,0,0,-0.894,-0.8908,-0.8893,-0.8863,-0.8816,-0.8782,-0.8779,-0.8724,-0.8703,-0.8675,-0.8635,-0.8613,-0.8562,-0.8532,-0.851,-0.8526,-0.8497,-0.8517,-0.8542,-0.8533,-0.8537,-0.8539,-0.8545,-0.8548,-0.8517,-0.8518,-0.8518,0,-0.8972,-0.8934,-0.8889,-0.8868,-0.8846,-0.8799,-0.8784,-0.8756,-0.8702,-0.8688,-0.8675,-0.8611,-0.8577,-0.8548,-0.8552,-0.8536,-0.8531,-0.8523,-0.854,-0.8542,-0.8544,-0.8549,-0.8552,-0.852,-0.852,-0.852,-0.8519,0,-0.8975,-0.895,-0.8944,-0.8894,-0.8871,-0.8853,-0.8805,-0.8788,-0.876,-0.8728,-0.8701,-0.8659,-0.8619,-0.861,-0.8582,-0.8578,-0.8572,-0.855,-0.8526,-0.8552,-0.8556,-0.8557,-0.8524,-0.8523,-0.8522,-0.8522,0,0,-0.9032,-0.8959,-0.8957,-0.8934,-0.8881,-0.886,-0.8841,-0.8802,-0.8789,-0.8753,-0.8735,-0.8695,-0.8675,-0.865,-0.8618,-0.8611,-0.8627,-0.859,-0.8588,-0.8598,-0.862,-0.8637,-0.864,-0.8608,-0.8608,-0.8608,-0.8624,0,-0.9049,-0.9012,-0.8972,-0.8948,-0.8925,-0.8881,-0.8864,-0.8829,-0.8799,-0.8774,-0.874,-0.8713,-0.8688,-0.8673,-0.8663,-0.8627,-0.863,-0.8625,-0.8591,-0.859,-0.8603,-0.8642,-0.8659,-0.8676,-0.8625,-0.8625,-0.8626,0,-0.9064,-0.9032,-0.9006,-0.8956,-0.8945,-0.893,-0.8893,-0.887,-0.883,-0.8808,-0.8782,-0.8749,-0.8727,-0.8707,-0.8675,-0.8672,-0.8656,-0.8636,-0.8636,-0.8631,-0.8609,-0.8638,-0.868,-0.8683,-0.8628,-0.8627,-0.8627,0,-0.9109,-0.9059,-0.9037,-0.9019,-0.896,-0.8951,-0.8925,-0.8885,-0.8865,-0.8832,-0.8819,-0.8784,-0.8765,-0.8739,-0.8698,-0.8687,-0.8671,-0.8647,-0.8652,-0.8654,-0.865,-0.8651,-0.8691,-0.8641,-0.8641,-0.8641,-0.864,0,-0.9132,-0.9118,-0.9057,-0.9044,-0.9027,-0.8982,-0.8967,-0.8937,-0.8902,-0.8883,-0.8842,-0.8825,-0.8772,-0.8748,-0.8716,-0.8695,-0.8687,-0.8669,-0.8661,-0.8672,-0.8675,-0.8661,-0.8658,-0.8641,-0.8641,-0.8641,-0.8641,0,-0.9178,-0.9137,-0.9111,-0.9057,-0.9044,-0.9034,-0.8988,-0.8974,-0.8942,-0.8918,-0.891,-0.8859,-0.883,-0.8787,-0.8743,-0.8722,-0.8706,-0.8692,-0.872,-0.8715,-0.8723,-0.8723,-0.8755,-0.8757,-0.8706,-0.8706,-0.8707,0,-0.9195,-0.9184,-0.913,-0.9114,-0.9091,-0.9066,-0.9046,-0.9001,-0.8982,-0.8937,-0.8928,-0.8895,-0.8867,-0.8822,-0.8781,-0.8749,-0.8734,-0.8747,-0.8728,-0.8741,-0.8734,-0.8735,-0.8734,-0.8752,-0.8752,-0.8753,-0.8754,0,-0.9231,-0.9211,-0.9184,-0.915,-0.9128,-0.9099,-0.9068,-0.9057,-0.9006,-0.8986,-0.8956,-0.8934,-0.8891,-0.886,-0.8822,-0.8796,-0.8766,-0.876,-0.876,-0.8772,-0.8788,-0.878,-0.8732,-0.8759,-0.8759,-0.8758,-0.8758,-0.8758,-0.9263,-0.9251,-0.9212,-0.9183,-0.9156,-0.9128,-0.9112,-0.9079,-0.9053,-0.9015,-0.899,-0.8962,-0.8923,-0.8869,-0.8845,-0.8822,-0.881,-0.8809,-0.8809,-0.8809,-0.8814,-0.8792,-0.8815,-0.8815,-0.8815,-0.8814,-0.8814,0,-0.9296,-0.9269,-0.9243,-0.9202,-0.918,-0.9155,-0.912,-0.9103,-0.9079,-0.9046,-0.9019,-0.8985,-0.8955,-0.8913,-0.8879,-0.8869,-0.8855,-0.8862,-0.8862,-0.8857,-0.8826,-0.883,-0.8874,-0.8874,-0.8874,-0.8874,-0.8874,-0.8874,-0.9311,-0.929,-0.9266,-0.9232,-0.9204,-0.9176,-0.9159,-0.9133,-0.9107,-0.9071,-0.9046,-0.9019,-0.8982,-0.8946,-0.8918,-0.8906,-0.8896,-0.8907,-0.8892,-0.8864,-0.8859,-0.8853,-0.8857,-0.8905,-0.8905,-0.8923,-0.8924,-0.8924]},{"header":{"parameterUnit":"m.s-1","parameterCategory":1,"la1":30.2991,"la2":30.254,"lo1":-89.0895,"lo2":-89.0444,"dy":0.0017,"dx":0.0017,"nx":28,"ny":28,"refTime":"2025-07-27T03:00:00:Z","depth":0,"parameterNumber":3,"parameterNumberName":"V-component_of_WINDS"},"data":[0,0,0,0,0,0,0,0,0,0,0,0,0,0,0,0,0,0,0,0,0,0,0,0,0,0,0,0,0,0,0,0,0,0,0,0,0,0,0,0,0,0,0,0,0,0,0,0,0,0,0,0,0,0,0,0,0,0,2.1779,2.1779,0,2.176,2.176,2.176,2.1781,2.1782,2.1783,2.1784,2.176,2.1759,2.1757,0,0,0,0,0,0,0,0,0,0,0,0,0,2.1829,2.1828,2.1779,2.1779,2.1778,2.176,2.176,2.176,2.1781,2.1782,2.1783,2.1784,2.176,2.1759,2.1757,0,0,0,0,0,0,0,0,0,0,0,0,0,2.1808,2.1828,2.1779,2.1787,2.1788,2.176,2.176,2.1759,2.1781,2.1782,2.1784,2.1785,2.1761,2.1759,2.1757,2.1719,0,0,2.175,2.1749,0,0,0,0,0,0,0,0,2.181,2.1807,2.1786,2.1787,2.1787,2.1774,2.1769,2.1746,2.1781,2.1783,2.1784,2.1785,2.1763,2.1761,2.1755,2.1718,2.1717,2.175,2.1749,2.1748,2.1747,0,0,0,0,0,0,0,2.1811,2.1807,2.1771,2.1786,2.1786,2.179,2.1789,2.1765,2.1766,2.1783,2.1785,2.1783,2.1764,2.1757,2.1754,2.1716,2.175,2.1748,2.1747,2.1746,2.1645,2.1644,0,0,0,0,0,0,2.1812,2.1809,2.1772,2.1771,2.1802,2.1788,2.1787,2.1777,2.1767,2.1767,2.1782,2.1784,2.176,2.1757,2.1754,2.1707,2.1748,2.1746,2.1745,2.1647,2.1645,2.1644,0,0,0,0,0,0,2.1813,2.1809,2.1773,2.179,2.1786,2.1786,2.1775,2.1776,2.1769,2.1766,2.1766,2.1774,2.1761,2.1757,2.1727,2.1707,2.1745,2.1743,2.1649,2.1646,2.1644,2.1615,0,0,0,0,0,0,2.1815,2.1809,2.1795,2.179,2.1785,2.1748,2.1774,2.1775,2.1766,2.1768,2.1759,2.1758,2.1761,2.173,2.1725,2.1704,2.1741,2.165,2.1648,2.1645,2.1617,2.1612,2.1607,0,0,0,0,0,2.1816,2.1787,2.1795,2.179,2.1768,2.1747,2.1744,2.1749,2.1764,2.175,2.1748,2.1758,2.171,2.1727,2.1722,2.17,2.1652,2.1648,2.1645,2.162,2.1613,2.1607,0,0,0,0,0,0,2.1789,2.1786,2.1795,2.1763,2.1755,2.175,2.1732,2.1742,2.1728,2.1731,2.1737,2.1735,2.1703,2.1699,2.1718,2.1662,2.1683,2.1679,2.1666,2.1659,2.1654,2.1655,2.174,0,0,0,0,0,2.1779,2.1763,2.1762,2.1734,2.173,2.1732,2.1723,2.1728,2.1719,2.1715,2.1711,2.17,2.1683,2.1671,2.1655,2.1618,2.1615,2.16,2.1595,2.159,2.1586,2.1564,2.1557,2.1633,2.1633,2.1633,0,0,2.1759,2.1756,2.1745,2.1728,2.1723,2.1704,2.1729,2.1708,2.1694,2.1712,2.1684,2.168,2.1669,2.1635,2.162,2.163,2.1564,2.1586,2.1583,2.1581,2.156,2.1553,2.1546,2.1631,2.1632,2.1632,0,0,2.1712,2.1709,2.1685,2.1679,2.1671,2.1673,2.1667,2.1661,2.1659,2.1632,2.1644,2.1627,2.1597,2.1588,2.158,2.153,2.1539,2.1525,2.1497,2.1476,2.147,2.1464,2.1445,2.1438,2.1521,2.1521,2.1521,0,2.1687,2.1662,2.1671,2.165,2.1642,2.1658,2.1633,2.1626,2.1612,2.1605,2.1618,2.158,2.1574,2.1538,2.1526,2.1519,2.1511,2.1525,2.147,2.1465,2.146,2.1441,2.1434,2.1519,2.1519,2.1519,2.152,0,2.1631,2.1613,2.1595,2.1582,2.1572,2.1549,2.1553,2.1541,2.1547,2.1547,2.1518,2.1512,2.1494,2.1486,2.1491,2.145,2.1457,2.147,2.1491,2.1451,2.1433,2.1426,2.1516,2.1517,2.1518,2.1518,0,0,2.1565,2.1559,2.1551,2.1546,2.1538,2.1523,2.1501,2.1485,2.1474,2.1464,2.1443,2.1418,2.143,2.142,2.1425,2.1407,2.1366,2.1422,2.1422,2.141,2.1318,2.1307,2.1298,2.1373,2.1372,2.1371,2.1318,0,2.1517,2.1479,2.1486,2.1448,2.1431,2.1447,2.1427,2.1419,2.1418,2.1402,2.1401,2.1382,2.1401,2.1395,2.1378,2.1375,2.1347,2.1379,2.1352,2.1351,2.1352,2.129,2.1278,2.1229,2.1312,2.1311,2.131,0,2.1455,2.1444,2.1405,2.14,2.1393,2.1375,2.136,2.1346,2.1336,2.1337,2.1327,2.1335,2.131,2.1334,2.1299,2.132,2.131,2.1307,2.1305,2.1301,2.1326,2.1282,2.1214,2.1205,2.1299,2.13,2.1301,0,2.1409,2.1384,2.1357,2.1352,2.1346,2.1332,2.1329,2.1321,2.1311,2.1298,2.1291,2.1275,2.1266,2.1253,2.1255,2.1272,2.1219,2.1243,2.1217,2.1217,2.1203,2.1204,2.113,2.12,2.12,2.12,2.1201,0,2.1353,2.1328,2.1336,2.1319,2.1291,2.13,2.1271,2.1269,2.1262,2.1244,2.1257,2.1239,2.1245,2.1227,2.1229,2.1199,2.1195,2.1194,2.1194,2.1191,2.1191,2.1183,2.1185,2.1198,2.1199,2.1199,2.12,0,2.1295,2.13,2.1272,2.1268,2.1267,2.1246,2.1242,2.1226,2.1227,2.1203,2.1198,2.1199,2.1179,2.1181,2.1158,2.1159,2.1121,2.1127,2.1124,2.1125,2.1098,2.11,2.1015,2.1003,2.1083,2.1082,2.1081,0,2.1259,2.124,2.1235,2.1224,2.122,2.1203,2.1193,2.1201,2.1189,2.1178,2.1162,2.1143,2.1128,2.1095,2.1092,2.1074,2.1078,2.105,2.1075,2.1073,2.1075,2.1075,2.1072,2.1044,2.1043,2.1042,2.1041,0,2.1192,2.1196,2.1181,2.1168,2.1156,2.1145,2.1136,2.1126,2.1133,2.1119,2.1099,2.1088,2.1065,2.1045,2.1028,2.1023,2.1032,2.1034,2.1026,2.1022,2.1021,2.1019,2.1108,2.1035,2.1036,2.1036,2.1037,2.1037,2.1142,2.1126,2.112,2.1103,2.1097,2.1088,2.1072,2.1072,2.1056,2.1039,2.1044,2.1021,2.1011,2.099,2.0983,2.0964,2.0974,2.0964,2.0961,2.0958,2.0954,2.1026,2.0961,2.0961,2.0961,2.0962,2.0962,0,2.1075,2.1072,2.1057,2.1044,2.103,2.1043,2.1033,2.102,2.1001,2.0992,2.0978,2.0954,2.0935,2.0931,2.0913,2.0898,2.0902,2.0893,2.0893,2.0891,2.0947,2.0954,2.089,2.089,2.089,2.089,2.089,2.089,2.1038,2.101,2.1013,2.0982,2.0979,2.0958,2.0951,2.0942,2.0935,2.0908,2.0893,2.0892,2.0885,2.0866,2.0848,2.0848,2.0839,2.0828,2.0828,2.088,2.0887,2.0894,2.0901,2.0827,2.0826,2.0774,2.0774,2.0773]}]]